Theta_e
324 324 323 323 323 323 323 322 321 321 321 321 321 321 321 321 319 324 319 311 313 323 321 315 315 315 315 313 315 315 304 301 304 305 305 308 307 310 311 310 312 314 314 317 322
325 324 324 324 324 323 323 322 321 321 321 321 320 320 320 319 320 319 313 322 321 323 314 312 310 311 308 310 312 308 303 304 309 309 308 308 308 308 307 308 308 310 314 317 318
325 325 325 325 324 324 323 322 321 322 322 321 320 320 319 320 318 310 318 321 322 319 315 313 313 310 306 309 308 308 303 308 308 307 308 308 307 309 306 304 309 308 310 313 312
324 324 324 325 324 324 323 322 322 322 322 321 321 320 319 322 304 313 320 321 323 316 314 312 310 307 305 304 308 302 307 307 307 306 306 305 308 306 308 307 311 311 311 310 309
322 322 323 324 325 324 323 322 322 322 322 321 321 320 320 317 315 316 322 319 316 316 312 309 307 307 303 306 305 303 305 305 307 306 305 307 304 305 305 308 309 309 309 308 307
321 321 322 322 323 323 322 321 320 320 321 321 320 318 319 310 326 325 321 319 318 316 312 310 307 308 304 304 303 305 305 304 305 305 306 303 304 305 305 308 307 307 306 306 306
321 321 321 322 322 322 321 319 319 319 320 321 320 321 316 315 327 327 323 321 320 315 310 311 309 306 307 303 307 304 300 302 303 304 303 304 300 301 305 306 305 305 305 305 305
316 317 318 319 318 318 318 317 318 319 320 320 319 320 312 326 328 325 325 322 321 319 314 312 311 307 305 307 304 300 300 295 302 303 303 302 296 302 305 304 303 304 304 304 304
315 316 315 314 315 315 315 316 318 319 319 319 319 318 312 323 320 324 323 319 321 320 316 311 309 306 306 300 297 299 293 296 299 304 303 300 298 303 305 304 303 303 303 304 303
315 315 315 315 314 313 314 315 316 316 318 321 321 312 316 314 320 318 317 319 317 315 308 306 305 302 302 298 291 295 295 297 297 301 300 299 298 303 304 304 303 303 304 304 303
315 314 315 313 313 313 313 314 310 308 310 311 312 312 315 321 319 315 316 315 317 310 301 305 300 296 299 301 300 298 296 295 299 301 299 298 298 300 303 303 303 303 303 303 303
315 314 315 314 314 313 314 309 310 303 299 313 314 314 318 319 311 314 317 310 308 301 303 302 297 302 304 302 299 297 295 295 298 300 299 297 297 301 303 303 303 303 303 303 302
314 314 313 313 314 313 311 310 313 310 298 305 311 312 314 316 312 312 312 310 304 301 301 299 302 305 301 299 296 296 294 294 295 299 300 297 295 298 302 304 304 304 305 304 303
313 313 312 312 308 311 307 314 318 312 293 298 305 309 314 315 309 317 319 312 306 301 302 302 306 302 300 298 299 294 300 297 295 293 289 298 287 296 299 300 301 302 302 302 301
311 312 312 312 311 307 312 318 318 311 281 302 305 314 312 309 308 310 318 313 304 303 304 300 302 302 299 300 302 298 300 297 296 293 293 293 289 293 299 296 297 300 301 302 302
311 310 311 312 313 313 316 318 310 288 281 296 303 302 302 306 307 306 307 314 313 307 306 302 307 304 301 303 302 301 297 296 295 293 286 290 290 290 294 297 299 300 301 302 301
310 310 310 314 306 314 317 308 289 281 296 293 295 298 299 299 303 303 299 300 299 296 297 299 300 304 302 296 299 297 292 285 284 284 284 293 290 293 297 299 299 299 301 302 302
309 309 309 309 314 312 309 295 281 289 290 296 296 296 294 298 298 300 296 295 303 301 296 293 291 299 302 297 294 294 292 287 280 282 286 293 287 290 298 300 301 300 302 303 301
308 308 307 309 312 309 299 284 285 290 294 292 294 292 293 296 297 297 295 294 298 302 294 291 292 302 303 300 297 293 289 295 289 290 286 288 293 295 297 297 298 298 300 301 301
304 303 302 311 313 304 294 287 290 295 296 294 287 292 289 292 293 294 294 298 297 301 302 296 289 296 296 299 299 295 298 289 289 280 279 285 287 289 292 294 297 297 298 300 301
300 294 304 312 310 296 285 289 292 297 297 293 290 290 291 291 293 292 292 297 300 300 301 298 294 291 294 292 291 292 291 292 291 288 281 280 289 297 296 298 297 299 299 301 302
297 287 307 310 290 291 287 293 296 294 297 296 296 295 293 293 291 292 292 295 299 300 295 299 295 288 289 295 297 296 293 292 285 283 287 285 286 299 300 300 299 298 299 301 302
292 292 309 307 284 286 293 293 295 293 294 294 294 296 296 293 289 293 295 296 297 297 295 298 291 285 287 290 293 290 293 293 292 291 286 283 288 299 299 298 300 299 300 300 301
288 285 293 296 296 291 289 290 291 296 294 295 294 296 294 292 295 292 293 294 295 296 296 298 292 289 284 287 291 288 290 292 291 285 286 286 288 294 296 296 297 299 300 299 299
287 285 292 285 289 292 292 292 290 290 294 296 293 293 292 289 291 291 293 292 293 294 294 297 288 288 290 290 290 290 290 291 289 289 285 288 289 292 295 296 297 298 297 297 297
285 286 293 293 293 291 291 289 289 291 293 291 291 294 294 290 291 287 290 291 290 292 293 295 288 288 284 290 290 288 290 291 291 290 290 290 289 296 298 299 297 297 296 295 297
287 296 291 291 291 289 289 290 291 295 295 296 295 293 292 294 297 298 297 296 295 293 291 291 291 286 283 289 288 283 287 289 290 292 291 286 292 296 295 296 297 297 297 295 296
Wind_Speed
8 7 6 6 5 6 7 8 9 10 11 14 16 20 21 22 26 16 12 2 3 9 12 16 19 12 10 13 6 10 9 12 14 13 14 9 7 5 5 17 19 11 17 14 14
9 9 8 7 6 6 7 8 9 10 12 13 15 19 21 20 18 20 3 2 5 7 10 15 13 13 10 8 4 5 10 12 11 14 12 9 4 10 6 17 15 16 13 11 12
10 9 8 7 6 6 7 8 9 10 11 13 16 19 22 22 15 3 4 3 5 7 13 14 13 14 13 9 11 7 13 9 7 11 10 7 1 5 6 15 9 14 12 12 12
11 10 9 8 7 6 7 8 9 9 12 13 15 19 24 7 8 7 4 4 6 10 13 12 12 12 14 12 5 7 10 3 6 4 3 2 6 8 12 10 11 11 11 10 11
11 11 10 9 8 7 8 8 9 9 10 11 14 17 13 9 17 10 7 10 8 11 9 10 11 11 12 7 3 10 10 1 0 2 4 4 5 3 13 11 11 10 9 9 9
10 10 10 10 8 7 7 8 8 9 10 10 12 17 11 16 6 4 7 5 10 9 9 8 7 10 11 7 8 7 7 7 7 9 8 6 10 10 9 9 10 9 8 8 8
8 10 9 10 8 7 5 6 8 8 9 10 12 10 13 20 14 7 7 9 7 7 9 1 7 10 9 10 5 7 10 12 14 12 10 5 10 13 15 11 10 10 9 9 9
4 4 3 6 4 2 2 5 8 8 7 8 10 11 10 13 14 12 9 11 9 8 7 4 7 11 8 11 9 12 13 11 15 13 9 6 12 18 16 13 12 12 10 9 8
6 2 2 3 1 3 3 7 6 5 4 7 8 9 16 4 11 14 15 15 14 10 7 4 8 10 9 11 12 14 12 15 9 14 11 12 7 16 15 14 14 12 10 9 9
8 7 4 1 3 4 4 3 4 4 6 8 9 11 20 16 8 5 7 11 11 9 9 10 8 10 11 12 12 7 17 13 7 14 3 8 11 16 16 15 13 13 12 9 8
8 12 6 4 1 3 1 2 3 4 6 13 10 13 10 14 2 9 10 10 12 12 14 15 12 14 16 18 16 6 9 12 11 10 9 8 11 11 19 15 13 12 12 10 9
11 8 10 7 4 4 4 2 4 4 9 19 24 22 25 15 5 15 10 12 14 16 16 15 16 17 17 2 4 9 13 14 13 14 7 5 14 13 16 19 14 13 12 12 12
7 8 5 6 7 3 3 4 5 7 5 9 23 25 24 26 21 16 15 15 14 17 19 18 7 6 8 8 7 13 14 15 15 14 6 9 16 18 18 17 14 11 12 12 12
9 9 11 7 2 5 5 6 3 3 5 9 14 19 29 21 27 25 23 18 19 20 19 19 18 12 10 11 12 15 14 15 13 12 12 9 10 12 13 15 14 10 8 11 10
9 10 9 16 4 9 7 10 6 3 4 3 14 3 11 28 3 22 22 26 25 22 16 17 16 17 20 16 15 16 6 6 9 12 14 16 11 12 10 17 16 14 12 11 12
11 9 7 10 10 8 6 12 6 2 10 6 7 10 10 22 23 3 9 24 22 24 22 23 20 11 16 12 15 8 4 9 11 11 14 15 14 9 8 16 19 18 16 14 12
13 11 6 5 10 10 9 8 5 7 7 8 11 12 15 16 23 15 11 18 22 19 21 22 22 16 8 11 7 11 9 5 9 9 11 15 13 5 10 10 17 14 15 15 12
13 11 8 6 7 11 10 6 8 13 20 5 4 10 14 14 16 19 14 16 21 21 10 18 19 24 16 18 14 14 15 7 8 10 10 3 4 5 13 12 12 8 11 14 12
12 8 6 6 8 1 7 13 12 13 14 15 7 8 11 14 8 16 17 16 18 20 17 7 21 14 25 13 17 14 16 14 14 12 7 8 10 10 11 12 9 8 6 9 9
8 9 14 10 7 4 8 12 16 21 20 17 16 13 13 15 13 10 11 11 20 20 20 13 10 4 5 1 15 17 3 7 4 5 7 9 12 4 10 11 10 7 11 10 11
7 6 8 14 6 7 8 7 22 22 22 19 16 21 18 13 13 16 10 11 12 13 16 14 9 4 8 8 13 10 10 8 7 10 4 5 3 7 5 3 5 3 4 6 9
6 7 9 15 9 3 7 19 21 20 23 12 9 10 10 15 16 20 20 18 4 6 13 11 3 5 13 8 16 13 15 14 4 6 6 9 8 8 8 7 6 7 8 6 12
4 6 10 13 14 11 16 22 26 23 22 6 16 15 13 14 10 14 16 5 6 5 3 4 4 5 8 7 5 8 9 14 12 9 13 9 4 2 5 8 11 12 8 10 12
2 7 6 8 16 24 17 29 26 27 24 19 18 21 16 14 13 8 9 5 2 5 4 3 4 7 9 9 2 6 13 15 14 8 9 13 8 11 9 11 13 13 8 7 13
4 4 7 8 14 21 26 19 27 23 26 21 12 19 16 11 15 15 6 5 2 2 2 3 6 2 5 10 3 12 13 15 15 12 13 9 12 14 9 12 13 5 6 3 12
4 4 6 12 21 24 22 21 22 29 25 31 22 17 16 14 11 3 3 7 3 5 5 5 2 3 5 6 8 10 15 15 15 13 16 13 20 14 13 16 2 2 2 1 5
1 5 2 10 22 17 21 29 29 25 22 26 27 20 16 14 5 4 12 5 4 2 2 4 3 3 7 9 10 6 15 13 14 17 13 15 17 13 12 11 4 5 4 4 3
Wind_Direction
233 244 259 274 290 311 323 328 331 327 325 321 324 320 319 321 316 305 273 98 309 335 323 278 278 257 273 255 229 275 271 265 278 222 94 108 157 109 1 90 64 74 74 101 126
232 236 240 257 275 294 309 317 320 320 318 319 323 321 318 326 308 293 122 255 25 337 320 327 320 323 295 245 241 233 249 273 8 32 113 109 237 127 204 125 108 97 98 99 81
229 236 240 242 257 278 296 306 310 315 313 320 324 323 318 321 293 85 175 295 321 291 278 294 286 283 281 258 261 253 243 12 67 25 14 66 193 103 273 84 81 117 107 90 96
229 230 233 236 251 264 281 291 302 310 316 322 325 324 317 296 293 86 193 238 267 283 286 284 279 267 266 266 198 275 265 320 67 69 330 115 15 101 77 86 80 80 103 109 94
229 229 230 231 233 250 271 288 300 310 313 317 323 322 328 293 269 142 206 229 265 265 280 301 290 286 264 270 335 252 270 145 227 210 245 265 210 194 115 118 112 111 106 100 99
233 238 236 230 233 247 271 289 300 303 302 309 316 318 284 274 292 136 245 269 262 273 274 274 306 338 298 295 279 12 316 274 237 218 220 232 226 121 129 134 130 129 115 105 88
250 238 231 244 240 245 263 295 303 306 296 301 307 303 282 257 291 281 229 268 287 284 291 252 315 281 329 256 256 273 263 249 231 231 227 183 230 192 141 153 145 132 123 108 107
360 359 311 168 158 178 315 328 311 295 286 291 298 297 262 273 285 278 241 238 235 250 264 316 278 277 269 301 263 251 245 256 230 185 129 191 275 127 150 162 159 148 144 133 111
289 284 276 314 84 27 348 317 312 292 265 273 271 209 274 184 226 242 236 234 230 225 242 271 257 253 246 249 258 221 249 217 139 174 168 188 152 147 161 180 165 161 155 151 137
273 273 233 228 342 334 350 349 327 289 227 247 253 290 234 241 202 222 215 244 230 196 215 233 232 239 224 239 240 267 207 237 226 173 199 230 243 160 181 188 173 177 171 159 145
238 250 218 211 287 280 214 288 271 230 229 215 196 224 305 206 113 224 211 214 211 208 217 208 222 231 235 228 250 344 298 299 305 139 174 234 261 250 182 193 192 185 166 166 151
220 222 229 161 161 279 280 250 350 2 288 241 253 247 266 282 245 230 174 202 203 217 215 241 227 246 247 341 272 274 280 279 273 274 238 236 263 261 196 187 194 185 171 169 142
204 207 217 201 157 163 260 248 58 14 267 240 246 242 235 242 237 231 188 213 210 225 226 220 165 184 226 208 249 254 259 269 271 286 196 235 256 252 248 169 186 175 174 159 159
202 208 206 199 157 153 206 246 190 163 285 261 212 240 228 226 245 234 230 224 231 242 232 247 236 226 221 244 241 258 255 261 249 274 261 246 276 296 125 161 169 164 146 125 119
205 215 215 187 229 189 169 183 164 257 288 128 202 55 199 207 16 208 216 226 225 227 235 238 238 235 247 242 234 251 305 283 271 260 270 260 263 250 223 170 173 166 160 154 150
200 219 249 212 263 258 155 140 150 183 234 255 126 185 193 197 217 138 226 219 234 235 249 246 267 215 244 236 241 265 195 246 254 258 256 252 250 255 250 196 176 162 156 153 140
196 205 177 246 221 221 173 150 181 228 220 204 183 187 206 206 215 209 225 218 209 215 230 245 231 247 226 250 195 233 209 227 216 221 247 250 247 277 121 96 133 142 151 143 153
202 193 215 214 274 333 176 174 208 226 232 39 190 188 208 206 205 218 230 233 218 216 235 225 236 219 183 217 221 218 214 219 224 238 280 88 206 59 79 113 107 112 134 142 151
206 212 227 221 213 123 188 203 211 217 256 228 221 211 215 226 210 209 221 239 227 230 224 259 236 224 224 180 214 220 214 250 280 286 280 260 272 103 104 110 122 124 123 142 159
210 224 231 216 186 190 204 209 227 235 270 283 263 246 240 212 193 229 218 223 236 212 211 257 283 268 108 293 202 242 302 213 241 220 225 246 255 110 151 160 155 185 177 192 183
200 221 217 179 158 225 209 211 227 233 245 246 256 259 222 242 242 239 235 230 212 224 196 232 262 213 132 199 196 212 223 236 225 233 264 280 284 172 153 116 122 315 191 194 188
187 216 182 153 191 235 199 213 225 225 248 258 283 287 281 234 248 223 241 236 224 230 199 211 295 226 207 215 233 212 211 222 209 235 258 255 251 118 141 151 200 235 262 254 124
207 201 172 179 193 211 223 227 231 226 240 218 267 252 271 276 259 270 229 20 344 200 153 186 238 211 215 186 241 242 251 222 225 228 239 256 247 78 137 187 235 238 259 138 141
186 189 235 198 207 198 212 221 222 226 237 238 239 279 255 262 263 260 242 144 130 273 59 284 229 224 219 201 95 220 252 251 253 244 257 244 265 270 286 299 305 311 18 108 144
185 244 208 178 193 212 213 224 221 217 217 233 221 239 262 235 269 239 344 118 171 130 229 211 228 75 324 125 162 240 255 278 252 259 236 260 255 272 304 317 301 10 32 40 142
166 188 258 182 209 204 213 219 240 222 213 222 223 223 222 237 225 299 123 280 207 172 206 207 189 82 327 273 233 239 245 252 256 249 264 271 271 274 278 275 184 182 224 216 167
180 223 293 209 194 200 207 219 223 238 212 222 219 232 231 247 15 126 175 200 320 282 118 44 32 168 242 245 273 292 245 248 261 261 260 261 267 288 279 281 57 48 122 150 219